Weather Roundup
Issued by NWS Springfield, MO

Home | Current Version | Previous Version | Text Only | Print | Product List | Glossary On
Versions: 1 2 3 4 5 6 7 8 9 10 11 12 13 14 15 16 17 18 19 20 21 22 23 24 25 26 27 28 29 30 31 32 33 34 35 36 37 38 39 40 41 42 43 44 45 46 47 48 49 50
000
NZUS99 KSGF 051057
HRRSGF

HOURLY WEATHER
NATIONAL WEATHER SERVICE SPRINGFIELD MO
500 AM CST MON DEC 05 2016

......SGF CWA......

CITY           SKY/WX    TMP DP  RH WIND       PRES   REMARKS
SPRINGFIELD    FOG       31  30  96 S9        29.99S VSB 1/4 WCI  23
JOPLIN         CLOUDY    34  34 100 S6        29.98F WCI  29
WEST PLAINS    CLOUDY    32  31  96 CALM      30.04F
ROLLA          CLOUDY    28  28 100 S3        29.99F FOG

......SURROUNDING SGF CWA......

CITY           SKY/WX    TMP DP  RH WIND       PRES   REMARKS
CHANUTE        CLOUDY    34  33  96 S5        29.95F FOG     WCI  30
PARSONS        FOG       34  32  92 CALM      29.97F VSB 1
COFFEYVILLE    FOG       33  33 100 CALM      29.97F VSB 1/4
EMPORIA        CLEAR     32  31  96 S13       29.90F WCI  22
HARRISON AR    CLOUDY    31  31 100 SE5       30.01F FOG     WCI  26

......KANSAS AND MISSOURI......

CITY           SKY/WX    TMP DP  RH WIND       PRES   REMARKS
KANSAS CTY INT CLEAR     30  28  92 S10       29.92S WCI  21
SEDALIA        CLOUDY    31  30  96 S6        29.99F WCI  25
ST JOSEPH      FOG       25  24  96 CALM      29.91S VSB 1/2
ST LOUIS       MOCLDY    37  32  82 S8        30.04F WCI  31
SPIRIT OF STL  CLOUDY    27  27 100 CALM      30.05S FOG
WICHITA        CLEAR     33  31  92 S10       29.89F WCI  25
TOPEKA         CLEAR     35  32  88 S7        29.91F WCI  29
OLATHE         CLEAR     32  31  96 S5        29.93F WCI  27

......TENNESSEE......

CITY           SKY/WX    TMP DP  RH WIND       PRES   REMARKS
MEMPHIS        NOT AVBL
NASHVILLE      MOCLDY    44  40  85 N6        30.06R

......ARKANSAS.......

CITY           SKY/WX    TMP DP  RH WIND       PRES   REMARKS
FAYETTEVILLE   CLOUDY    28  28 100 CALM      29.99F FOG
FT SMITH       CLOUDY    38  36  92 E3        30.02F FOG
LITTLE ROCK    CLOUDY    42  42 100 N5        30.03F

......OKLAHOMA.......

CITY           SKY/WX    TMP DP  RH WIND       PRES   REMARKS
TULSA          CLOUDY    39  38  96 S9        29.97F WCI  33
PONCA CITY     FOG       31  29  92 CALM      29.93F VSB 1/2
MCALESTER      FOG       35  32  88 CALM      29.98F VSB 1/4
OKLAHOMA CITY  CLOUDY    33  32  96 S8        29.94F FOG     WCI  26

......IOWA............

CITY           SKY/WX    TMP DP  RH WIND       PRES   REMARKS
DES MOINES     NOT AVBL
QUAD CITIES    CLOUDY    33  30  88 S8        29.99S FOG     WCI  26

......ILLINOIS........

CITY           SKY/WX    TMP DP  RH WIND       PRES   REMARKS
QUINCY         NOT AVBL
CHICAGO        CLOUDY    33  30  88 W10       30.00R WCI  25




USA.gov is the U.S. government's official web portal to all federal, state and local government web resources and services.